| time (UTC) | temp F | wind direction | speed MPH | gust MPH | rain 1hr in | rain 24hr in | rain mn in | humidity % | barometer mb |
| 20260505124521 | 58 | 162 | 0.0 | 0.0 | 0.00 | 0.28 | 0.00 | 93 | 1003.9 |
| 20260505123053 | 58 | 162 | 0.0 | 0.0 | 0.00 | 0.28 | 0.00 | 93 | 1003.4 |
| 20260505121544 | 0 | 0.0 | 0.0 | 0.00 | 0.28 | 0.00 | 1003.4 | ||
| 20260505120009 | 0 | 0.0 | 0.0 | 0.00 | 0.28 | 0.00 | 1003.4 | ||
| 20260505114507 | 0 | 0.0 | 0.0 | 0.00 | 0.28 | 0.28 | 1003.4 | ||
| 20260505113032 | 0 | 0.0 | 0.0 | 0.00 | 0.28 | 0.28 | 1002.9 | ||
| 20260505111533 | 0 | 0.0 | 0.0 | 0.00 | 0.28 | 0.28 | 1002.6 | ||
| 20260505110109 | 0 | 0.0 | 0.0 | 0.01 | 0.28 | 0.28 | 1002.9 | ||
| 20260505101541 | 59 | 162 | 0.0 | 0.0 | 0.05 | 0.28 | 0.28 | 93 | 1003.0 |
| 20260505100041 | 59 | 162 | 0.0 | 0.0 | 0.05 | 0.27 | 0.27 | 93 | 1003.1 |
| 20260505094540 | 59 | 162 | 0.0 | 3.0 | 0.04 | 0.26 | 0.26 | 93 | 1002.7 |
| 20260505093012 | 59 | 162 | 0.0 | 0.0 | 0.04 | 0.25 | 0.25 | 93 | 1003.1 |
| 20260505091508 | 59 | 162 | 0.0 | 0.0 | 0.04 | 0.23 | 0.23 | 93 | 1003.6 |
| 20260505090038 | 59 | 162 | 0.0 | 2.0 | 0.04 | 0.22 | 0.22 | 93 | 1003.1 |
| 20260505084539 | 59 | 162 | 0.0 | 0.0 | 0.08 | 0.22 | 0.22 | 93 | 1003.8 |
| 20260505083039 | 59 | 162 | 0.0 | 0.0 | 0.09 | 0.21 | 0.21 | 93 | 1004.5 |
| 20260505081533 | 59 | 162 | 0.0 | 2.0 | 0.09 | 0.19 | 0.19 | 92 | 1003.8 |
| 20260505080032 | 59 | 162 | 0.0 | 0.0 | 0.10 | 0.18 | 0.18 | 92 | 1004.2 |
| 20260505074534 | 59 | 162 | 0.0 | 0.0 | 0.08 | 0.14 | 0.14 | 91 | 1004.6 |
| 20260505073102 | 60 | 162 | 0.0 | 0.0 | 0.11 | 0.12 | 0.12 | 90 | 1004.7 |
| 20260505071558 | 60 | 162 | 0.0 | 4.0 | 0.10 | 0.10 | 0.10 | 89 | 1005.0 |
| 20260505070027 | 60 | 162 | 0.0 | 0.0 | 0.08 | 0.08 | 0.08 | 87 | 1004.7 |
| 20260505064532 | 61 | 162 | 0.0 | 4.0 | 0.06 | 0.06 | 0.06 | 83 | 1004.4 |
| 20260505063052 | 62 | 162 | 0.0 | 8.0 | 0.01 | 0.01 | 0.01 | 80 | 1003.7 |
| 20260505061552 | 63 | 162 | 0.0 | 1.0 | 0.00 | 0.00 | 0.00 | 78 | 1003.7 |
| 20260505060019 | 63 | 162 | 0.0 | 0.0 | 0.00 | 0.00 | 0.00 | 74 | 1003.8 |
| 20260505054539 | 64 | 162 | 0.0 | 1.0 | 0.00 | 0.00 | 0.00 | 73 | 1004.2 |
| 20260505053048 | 64 | 162 | 0.0 | 0.0 | 0.00 | 0.00 | 0.00 | 73 | 1004.2 |
| 20260505051548 | 64 | 162 | 0.0 | 0.0 | 0.00 | 0.00 | 0.00 | 72 | 1003.9 |
| 20260505041545 | 65 | 162 | 0.0 | 1.0 | 0.00 | 0.00 | 0.00 | 70 | 1004.2 |
| 20260505040016 | 65 | 162 | 0.0 | 1.0 | 0.00 | 0.00 | 0.00 | 69 | 1004.4 |
| 20260505034522 | 65 | 162 | 0.0 | 1.0 | 0.00 | 0.00 | 0.00 | 68 | 1004.6 |
| 20260505033044 | 66 | 162 | 0.0 | 2.0 | 0.00 | 0.00 | 0.00 | 67 | 1004.7 |
| 20260505031545 | 66 | 162 | 0.0 | 0.0 | 0.00 | 0.00 | 0.00 | 67 | 1004.7 |
| 20260505030047 | 66 | 162 | 0.0 | 1.0 | 0.00 | 0.00 | 0.00 | 67 | 1004.8 |
| 20260505024539 | 66 | 162 | 0.0 | 0.0 | 0.00 | 0.00 | 0.00 | 66 | 1004.7 |
| 20260505023043 | 67 | 162 | 0.0 | 0.0 | 0.00 | 0.00 | 0.00 | 66 | 1004.6 |
| 20260505021540 | 67 | 162 | 0.0 | 0.0 | 0.00 | 0.00 | 0.00 | 65 | 1004.4 |
| 20260505020052 | 67 | 162 | 0.0 | 0.0 | 0.00 | 0.00 | 0.00 | 64 | 1004.2 |
| 20260505014511 | 68 | 162 | 0.0 | 2.0 | 0.00 | 0.00 | 0.00 | 62 | 1004.0 |
| 20260505013012 | 69 | 162 | 0.0 | 9.0 | 0.00 | 0.00 | 0.00 | 61 | 1003.9 |
| 20260505011536 | 69 | 162 | 0.0 | 9.0 | 0.00 | 0.00 | 0.00 | 61 | 1003.7 |
| 20260505010036 | 70 | 164 | 0.0 | 1.0 | 0.00 | 0.00 | 0.00 | 61 | 1003.5 |
| 20260505004515 | 70 | 164 | 0.0 | 2.0 | 0.00 | 0.00 | 0.00 | 59 | 1003.3 |
| 20260505003005 | 71 | 164 | 0.0 | 5.0 | 0.00 | 0.00 | 0.00 | 58 | 1003.4 |
| 20260505001537 | 72 | 164 | 0.0 | 8.0 | 0.00 | 0.00 | 0.00 | 56 | 1003.0 |
| 20260505000037 | 73 | 165 | 0.0 | 0.0 | 0.00 | 0.00 | 0.00 | 55 | 1003.0 |
| 20260504234506 | 73 | 165 | 0.0 | 8.0 | 0.00 | 0.00 | 0.00 | 53 | 1003.1 |
| 20260504233004 | 74 | 165 | 0.0 | 10.0 | 0.00 | 0.00 | 0.00 | 52 | 1003.1 |
| 20260504231501 | 75 | 165 | 0.0 | 9.0 | 0.00 | 0.00 | 0.00 | 51 | 1003.3 |
| 20260504230002 | 76 | 165 | 0.0 | 6.0 | 0.00 | 0.00 | 0.00 | 50 | 1003.2 |
| 20260504224618 | 76 | 166 | 0.0 | 8.0 | 0.00 | 0.00 | 0.00 | 50 | 1003.2 |
| 20260504223100 | 76 | 164 | 4.0 | 16.0 | 0.00 | 0.00 | 0.00 | 49 | 1003.1 |
| 20260504221641 | 77 | 166 | 3.0 | 15.0 | 0.00 | 0.00 | 0.00 | 46 | 1003.3 |
| 20260504220054 | 77 | 165 | 4.0 | 16.0 | 0.00 | 0.00 | 0.00 | 46 | 1003.4 |
| 20260504214552 | 77 | 161 | 4.0 | 12.0 | 0.00 | 0.00 | 0.00 | 47 | 1003.5 |
| 20260504213054 | 77 | 160 | 6.0 | 16.0 | 0.00 | 0.00 | 0.00 | 48 | 1003.6 |
| 20260504211548 | 77 | 170 | 8.0 | 16.0 | 0.00 | 0.00 | 0.00 | 47 | 1003.8 |
| 20260504210049 | 77 | 165 | 10.0 | 17.0 | 0.00 | 0.00 | 0.00 | 47 | 1003.9 |
| 20260504204545 | 77 | 165 | 7.0 | 20.0 | 0.00 | 0.00 | 0.00 | 49 | 1004.0 |
| 20260504203044 | 77 | 164 | 12.0 | 22.0 | 0.00 | 0.00 | 0.00 | 47 | 1004.2 |
| 20260504201511 | 77 | 153 | 15.0 | 22.0 | 0.00 | 0.00 | 0.00 | 47 | 1004.4 |
| 20260504200010 | 77 | 150 | 10.0 | 21.0 | 0.00 | 0.00 | 0.00 | 49 | 1004.4 |
| 20260504194514 | 77 | 156 | 10.0 | 22.0 | 0.00 | 0.00 | 0.00 | 49 | 1004.4 |
| 20260504193007 | 77 | 154 | 10.0 | 20.0 | 0.00 | 0.00 | 0.00 | 48 | 1004.6 |
| 20260504191503 | 77 | 150 | 11.0 | 22.0 | 0.00 | 0.00 | 0.00 | 49 | 1004.7 |
| 20260504190002 | 76 | 160 | 9.0 | 22.0 | 0.00 | 0.00 | 0.00 | 50 | 1004.7 |
| 20260504184541 | 75 | 148 | 8.0 | 30.0 | 0.00 | 0.00 | 0.00 | 50 | 1004.8 |
| 20260504183028 | 75 | 165 | 11.0 | 23.0 | 0.00 | 0.00 | 0.00 | 50 | 1004.9 |
| 20260504181556 | 75 | 160 | 9.0 | 27.0 | 0.00 | 0.00 | 0.00 | 50 | 1005.1 |
| 20260504180055 | 75 | 165 | 3.0 | 16.0 | 0.00 | 0.00 | 0.00 | 51 | 1005.3 |
| 20260504174522 | 75 | 160 | 15.0 | 21.0 | 0.00 | 0.00 | 0.00 | 48 | 1005.5 |
| 20260504173020 | 74 | 163 | 7.0 | 17.0 | 0.00 | 0.00 | 0.00 | 51 | 1005.7 |
| 20260504171549 | 74 | 161 | 10.0 | 23.0 | 0.00 | 0.00 | 0.00 | 50 | 1005.7 |